Home   Weather   Dundee   Past weeks

Flag for United Kingdom Past Weather in Dundee, Scotland, United Kingdom — Yesterday and Last 2 Weeks

Now
57 °F

Passing clouds.


Feels Like: 52 °F
Forecast: 47 / 57 °F
Wind: 28 mph from West

Location: Leuchars

Current Time: Sep 28, 2016 at 2:57:27 AM

Latest Report: Sep 28, 2016 at 1:50 AM


Visibility: N/A

Pressure: 29.80 "Hg

Humidity: 72%

Dew Point: 48 °F

Location of DundeeLocation

Past Weather in Dundee — Graph

°F

Dundee Temperature Yesterday

Maximum temperature yesterday: 63 °F (at 10:50 AM)
Minimum temperature yesterday: 45 °F (at 3:50 AM)
Average temperature yesterday: 56 °F

High & Low Weather Summary for the Past Weeks

 TemperatureHumidityPressure
High70 °F (Sep 13, 12:50 PM)100% (Sep 14, 8:50 PM)30.21 "Hg (Sep 14, 8:50 PM)
Low41 °F (Sep 21, 6:50 AM)52% (Sep 16, 2:50 PM)29.56 "Hg (Sep 25, 1:50 AM)
Average57 °F83%29.95 "Hg
* Reported Sep 13 12:50 AM — Sep 28 12:50 AM, Dundee, Weather by CustomWeather, © 2016

Note: Actual official high and low records may vary slightly from our data, if they occured in-between our weather recording intervals... More about our weather records

Advertising

Dundee Weather History for the Previous 24 Hours

Scroll right to see more
 ConditionsComfort  
Time TempWeatherWind HumidityBarometerVisibility
12:50 AM
Wed, Sep 28
59 °FPassing clouds.31 mph68%29.80 "HgN/A
11:50 PM
Tue, Sep 27
59 °FPassing clouds.26 mph68%29.80 "HgN/A
9:50 PM57 °FClear.21 mph72%29.80 "Hg10 mi
8:50 PM57 °FClear.25 mph72%29.83 "Hg10 mi
7:50 PM57 °FClear.26 mph72%29.83 "Hg10 mi
6:50 PM59 °FPartly sunny.26 mph68%29.86 "HgN/A
5:50 PM59 °FPartly sunny.31 mph68%29.86 "HgN/A
4:50 PM61 °FPassing clouds.33 mph59%29.83 "HgN/A
3:50 PM63 °FPartly sunny.30 mph56%29.86 "HgN/A
2:50 PM63 °FScattered clouds.28 mph59%29.83 "HgN/A
1:50 PM63 °FScattered clouds.30 mph56%29.83 "HgN/A
12:50 PM63 °FPassing clouds.33 mph56%29.80 "HgN/A
11:50 AM63 °FPassing clouds.31 mph73%29.74 "HgN/A
10:50 AM63 °FBroken clouds.23 mph83%29.74 "HgN/A
9:50 AM61 °FPartly sunny.22 mph83%29.74 "HgN/A
8:50 AM57 °FScattered showers. Broken clouds.10 mph94%29.77 "HgN/A
7:50 AM55 °FPartly sunny.8 mph88%29.80 "HgN/A
6:50 AM52 °FPassing clouds.6 mph94%29.83 "HgN/A
5:50 AM50 °FSprinkles. Passing clouds.3 mph100%29.86 "HgN/A
4:50 AM46 °FClear.3 mph100%29.89 "Hg10 mi
3:50 AM45 °FFog.2 mph100%29.95 "Hg2 mi
2:50 AM46 °FFog.1 mph100%29.95 "Hg3 mi
Weather by CustomWeather, © 2016

See weather overviewHow to use our weather pages